User: anonymous   Login
Location: Chena
(64.8152°N, 147.9227°W)
Time: 18:04:32
(UTC+00:00)
Language:

Explorer 7 - Orbit

View from above orbital plane
View from above orbital plane
View from above satellite
View from above satellite

Ground track
Ground track

The orbit data is extracted from the following two-line orbital elements,

1 00022U 59009A   21058.86026326  .00000202  00000-0  38120-4 0  9998
2 00022  50.2851 343.4537 0138801 154.7486 206.0331 14.95418066508587
Epoch (UTC): 27 February 2021 20:38:46
Eccentricity: 0.0138801
inclination: 50.2851°
perigee height: 484 km
apogee height: 677 km
right ascension of ascending node: 343.4537°
argument of perigee: 154.7486°
revolutions per day: 14.95418066
mean anomaly at epoch: 206.0331°
orbit number at epoch: 50858

The dashed part of the orbit path shows where the satellite is in the earth's shadow,  

DLR